Volver al catálogo

STARLINK-35222

ActivoComunicacionesVLEO
NORAD 65677·PAYLOAD·🇺🇸 United States

Lanzado Sep 21, 2025 desde Cape Canaveral Space Force Station

Loading…

Próximos Pases (próximas 24 horas)

TLE

ActualizadoSource: CelesTrak SupGP

Época: Sep 14, 2026, 21:35 UTC

1 65677C 25212B   26257.89979167 -.00019996  00000+0 -59058-3 0  2573
2 65677  53.1580 184.0915 0001254 104.8350 156.1717 15.34411248    18

Sigue STARLINK-35222 en tiempo real con AllMySat

Download on the App Store